Showing default

HULIANWANG DIGUI-154, 67530

Orbit data source: Space-Track

HULIANWANG DIGUI-154, 67530 is a payload satellite owned by Zhongguo Xingwang (CN) in LEO that was launched on Mon, 19 Jan 2026 UTC via a CHANG ZHENG 12 launch vehicle from the Wenchang Satellite Launch Center (WSC). Payload-class satellites include a variety of spacecraft equipped with specific instruments for various scientific and technological missions. These include communications satellites like Starlink; space stations such as the ISS; scientific satellites like the Hubble; Earth observation satellites from companies like Planet Labs, Umbra, and HawkEye 360; GPS; miniature CubeSats for education and research; and military/defense satellites.

Loading next visibility...
Identifier
67530, 2026-013J
Orbit
LEO
Country
Flag of CNCN / PRC
Related business
Manufacturer
YINNT
Mission
Operational Civil Communications
Bus & Motor
XINGWANG Y, Unknown motor
Mass
~800 kg wet, ~800 kg dry
Launch date (UTC)
2026-01-19 (5 months ago)
Launch vehicle
CHANG ZHENG 12
Launch site
Wenchang Satellite Launch Center (WSC)
Object type
Payload
Rocket body
Debris
Shape & HBR
Box + 2 Pan, 14.5 m
Radar Cross Section
5.935 m², Large (>1 m²)

Expand to show TLE details & history
Last TLE update: 5 hours ago

TLE from 5 hours ago
0 HULIANWANG DIGUI-154
1 67530U 26013J   26163.88209213 -.00000073  00000-0  10908-3 0  9996
2 67530  50.0079  10.7327 0001104  98.8924 261.2073 13.29330065 19474
Epoch: 2026-06-12T21:10Z
TLE epoch observation values (Epoch: 2026-06-12T21:10:12.760Z)
Latitude
-0.00001°
Longitude
151.97436°
Altitude
1,149.925 km
Speed
7.279 km/s
True Right ascension
00h 42m 55s
True Declination
0° 00' 00"
Sunlit
Object was in daylight at epoch
Visualization orbit readout
Latitude
Unknown
Longitude
Unknown
Altitude
Unknown
Speed
Unknown
Apparent Right ascension
Unknown
Apparent Declination
Unknown
Sunlit
N/A
Visualization observer readout
Local Sidereal Time
12:48:52
Azimuth
Unknown
Elevation
Unknown
Doppler factor
Unknown
Orbital elements
Apogee altitude
1,150.827 km
Perigee altitude
1,149.164 km
Semi-major axis
7,528.132 km
Eccentricity
0.00011
Inclination
50.0079°
RAAN
10.7327°
Arg. of periapsis
98.8924°
True anomaly
261.1948°
Mean anomaly
261.2073°
Eccentric anomaly
261.20105°
Mean motion
3.32286 °/min
Orbital period
108.34 mins
BSTAR
0.00010908
Loading maneuver chart data...
Computing Atmospheric mass density...
Loading historical data...
Loading historical data...
Loading historical data...
Loading historical data...
Loading historical data...
Loading historical data...
Loading historical data...

Documentation

Showing up to 5 results
|